Precipitable_Water
0.59 0.60 0.61 0.62 0.61 0.57 0.54 0.53 0.52 0.48 0.45 0.41 0.35 0.32 0.29 0.31 0.36 0.42 0.52 0.60 0.64 0.63 0.61 0.61 0.63 0.66 0.68 0.71 0.77 0.88 0.97 0.98 1.02
0.61 0.62 0.61 0.60 0.58 0.54 0.52 0.50 0.49 0.46 0.43 0.40 0.34 0.29 0.28 0.31 0.36 0.42 0.53 0.59 0.61 0.60 0.57 0.56 0.58 0.58 0.59 0.59 0.60 0.61 0.64 0.73 0.85
0.63 0.60 0.59 0.58 0.55 0.52 0.50 0.49 0.48 0.46 0.42 0.39 0.34 0.30 0.28 0.31 0.36 0.42 0.51 0.58 0.60 0.58 0.55 0.55 0.56 0.55 0.55 0.55 0.55 0.55 0.57 0.59 0.61
0.60 0.58 0.58 0.55 0.54 0.49 0.47 0.46 0.46 0.44 0.40 0.36 0.33 0.31 0.29 0.32 0.37 0.43 0.51 0.57 0.59 0.57 0.56 0.56 0.56 0.55 0.54 0.54 0.53 0.53 0.53 0.54 0.56
0.57 0.56 0.56 0.54 0.51 0.47 0.42 0.40 0.40 0.40 0.38 0.34 0.32 0.29 0.28 0.28 0.34 0.43 0.52 0.58 0.58 0.56 0.56 0.57 0.57 0.56 0.56 0.55 0.55 0.54 0.53 0.53 0.53
0.52 0.53 0.53 0.49 0.45 0.41 0.39 0.36 0.32 0.33 0.33 0.32 0.30 0.28 0.27 0.27 0.32 0.42 0.49 0.53 0.56 0.57 0.52 0.52 0.53 0.52 0.50 0.50 0.51 0.53 0.54 0.54 0.54
0.49 0.48 0.46 0.43 0.40 0.38 0.35 0.33 0.30 0.29 0.29 0.29 0.29 0.27 0.27 0.27 0.31 0.39 0.45 0.52 0.55 0.50 0.48 0.48 0.48 0.49 0.49 0.49 0.49 0.48 0.47 0.47 0.48
0.42 0.37 0.33 0.32 0.31 0.29 0.29 0.29 0.29 0.29 0.29 0.29 0.29 0.29 0.28 0.28 0.30 0.38 0.45 0.49 0.48 0.47 0.49 0.48 0.47 0.47 0.47 0.47 0.46 0.46 0.47 0.48 0.48
0.35 0.34 0.33 0.32 0.31 0.29 0.29 0.29 0.29 0.29 0.29 0.29 0.29 0.29 0.28 0.29 0.31 0.38 0.40 0.40 0.39 0.43 0.45 0.45 0.44 0.43 0.42 0.42 0.43 0.43 0.44 0.45 0.46
0.37 0.35 0.34 0.33 0.31 0.30 0.29 0.29 0.29 0.29 0.29 0.30 0.30 0.29 0.29 0.29 0.32 0.34 0.34 0.34 0.34 0.40 0.42 0.42 0.42 0.41 0.41 0.42 0.43 0.43 0.43 0.43 0.43
0.39 0.38 0.36 0.35 0.33 0.32 0.30 0.30 0.30 0.29 0.30 0.30 0.30 0.30 0.30 0.31 0.32 0.33 0.33 0.30 0.32 0.35 0.37 0.38 0.38 0.37 0.37 0.39 0.40 0.40 0.41 0.41 0.41
0.41 0.39 0.37 0.36 0.35 0.34 0.33 0.32 0.31 0.30 0.30 0.30 0.30 0.30 0.30 0.32 0.33 0.33 0.32 0.31 0.31 0.32 0.35 0.35 0.34 0.34 0.35 0.36 0.37 0.38 0.38 0.38 0.38
0.41 0.39 0.38 0.37 0.36 0.37 0.37 0.35 0.33 0.31 0.30 0.30 0.30 0.30 0.31 0.32 0.33 0.33 0.32 0.32 0.31 0.32 0.32 0.32 0.32 0.31 0.32 0.34 0.36 0.37 0.37 0.36 0.37
0.41 0.40 0.39 0.38 0.38 0.38 0.39 0.38 0.36 0.33 0.31 0.30 0.30 0.31 0.31 0.32 0.32 0.32 0.31 0.32 0.32 0.31 0.31 0.30 0.29 0.29 0.31 0.32 0.33 0.34 0.34 0.35 0.37
0.41 0.40 0.40 0.39 0.39 0.40 0.41 0.40 0.39 0.36 0.33 0.30 0.29 0.31 0.32 0.32 0.33 0.32 0.32 0.32 0.32 0.32 0.31 0.30 0.29 0.28 0.29 0.30 0.30 0.30 0.33 0.34 0.35
0.41 0.41 0.41 0.40 0.40 0.42 0.43 0.42 0.40 0.37 0.36 0.33 0.31 0.31 0.31 0.31 0.32 0.32 0.32 0.32 0.32 0.31 0.31 0.30 0.29 0.28 0.28 0.28 0.28 0.30 0.31 0.32 0.33
0.41 0.41 0.41 0.40 0.41 0.43 0.44 0.44 0.41 0.39 0.38 0.33 0.32 0.29 0.31 0.32 0.32 0.32 0.32 0.32 0.32 0.31 0.30 0.29 0.28 0.28 0.27 0.27 0.28 0.27 0.28 0.30 0.32
0.42 0.42 0.42 0.42 0.44 0.46 0.47 0.46 0.43 0.40 0.39 0.37 0.33 0.28 0.27 0.29 0.33 0.33 0.33 0.33 0.31 0.29 0.29 0.29 0.28 0.27 0.27 0.27 0.26 0.26 0.27 0.28 0.31
0.43 0.43 0.43 0.44 0.46 0.48 0.50 0.49 0.47 0.43 0.39 0.38 0.35 0.33 0.31 0.29 0.29 0.34 0.35 0.33 0.30 0.29 0.27 0.27 0.27 0.26 0.26 0.26 0.25 0.26 0.26 0.29 0.32
0.44 0.44 0.44 0.46 0.48 0.51 0.52 0.51 0.49 0.46 0.42 0.37 0.35 0.34 0.34 0.34 0.30 0.29 0.29 0.30 0.30 0.30 0.27 0.26 0.25 0.25 0.25 0.25 0.25 0.25 0.27 0.29 0.32
Wind_Speed
5 4 3 2 0 1 2 3 4 4 5 6 6 6 6 6 6 6 6 7 8 8 8 8 8 9 9 10 10 10 10 10 10
5 4 3 2 1 0 1 3 3 4 5 6 6 6 6 6 7 7 8 9 9 10 10 10 11 11 11 12 12 12 12 13 13
6 5 4 3 1 0 1 2 3 4 5 6 7 7 7 8 8 9 9 10 11 11 12 12 13 13 14 14 14 15 15 15 15
6 5 4 3 2 1 1 3 4 5 6 7 7 8 8 9 9 10 11 12 12 12 13 13 14 15 15 16 17 17 17 18 18
7 6 5 4 3 2 3 4 5 6 7 8 8 9 10 10 11 12 12 13 13 13 14 14 15 16 17 17 18 19 20 20 21
8 7 6 4 4 4 4 5 6 7 8 8 9 10 11 12 12 13 14 14 14 14 15 15 16 17 18 19 20 21 22 23 23
9 8 6 5 5 5 5 6 7 8 9 10 11 12 13 14 14 15 16 15 15 16 16 17 17 18 19 19 20 21 23 24 25
10 9 8 7 7 7 7 8 9 9 10 11 12 14 14 15 15 16 16 16 16 16 16 17 18 18 20 21 22 23 24 25 26
12 11 10 9 9 9 9 9 10 11 12 13 14 15 15 16 16 16 15 16 17 17 17 18 19 20 21 22 23 24 25 27 28
13 11 10 10 10 10 10 11 12 12 13 14 15 15 16 16 16 15 16 16 17 17 18 19 21 22 23 24 25 26 28 29 30
13 12 11 11 11 12 12 12 13 13 14 15 15 15 16 16 16 15 16 17 18 19 20 22 23 24 25 26 28 29 30 31 33
15 13 12 12 12 12 13 14 14 15 15 16 16 16 16 16 16 16 18 19 20 21 23 24 26 27 28 29 30 31 33 34 36
17 15 14 13 13 14 14 15 16 16 16 17 16 17 17 17 18 18 20 22 23 24 26 27 29 29 30 32 33 34 36 37 39
18 17 16 15 15 15 15 16 17 17 17 18 18 18 19 19 20 20 23 24 26 27 29 30 31 32 33 34 35 37 38 39 41
20 19 18 17 16 17 17 17 18 18 18 19 19 20 20 21 22 23 26 27 27 29 31 33 34 35 36 37 38 39 40 42 43
22 21 20 19 18 18 18 18 18 18 19 20 20 20 21 23 22 26 27 28 29 32 33 35 36 37 38 38 39 41 43 44 46
24 23 21 20 20 19 19 20 19 19 20 20 21 21 22 22 26 26 28 30 32 34 36 37 39 39 40 41 42 43 45 46 48
26 25 23 22 21 20 20 20 20 20 21 21 21 22 23 26 25 28 29 32 33 36 38 39 40 41 42 43 44 45 47 49 50
28 26 25 23 22 22 21 21 21 21 21 22 23 24 25 26 27 28 31 32 36 37 39 40 42 43 44 45 46 48 49 51 52
29 28 27 25 24 23 23 22 22 22 22 23 24 25 26 28 29 31 32 35 35 38 40 42 42 44 45 46 48 49 51 53 55
Wind_Direction
187 184 176 176 144 20 12 11 7 7 3 358 355 350 342 334 328 318 312 307 304 299 295 291 289 289 287 286 287 288 289 289 287
187 185 186 189 185 35 12 7 6 0 359 355 350 345 341 333 326 320 314 309 303 298 294 290 287 286 285 285 285 286 285 284 284
190 190 196 198 208 238 349 353 352 349 348 344 341 337 332 328 325 319 314 310 304 299 295 291 287 285 284 284 284 284 283 283 282
196 197 196 203 218 247 311 329 332 332 335 334 333 332 329 325 322 318 314 311 306 302 298 294 290 287 285 284 283 283 282 281 280
198 198 204 212 231 263 296 309 317 322 323 326 325 325 324 322 319 317 315 311 308 305 302 298 294 291 288 286 285 283 282 281 280
206 205 212 222 245 272 293 304 306 313 317 318 319 318 318 316 315 314 313 310 307 305 303 301 298 295 293 290 287 286 284 282 281
208 211 221 235 253 274 288 297 303 306 308 310 313 314 314 313 312 311 311 309 307 306 304 302 300 297 295 293 291 289 287 285 283
216 222 235 246 260 273 284 293 300 304 306 308 310 311 311 310 309 310 309 308 308 307 305 304 302 300 298 296 294 291 289 287 285
222 229 239 252 264 274 282 289 296 302 305 306 307 309 309 309 309 309 309 308 309 308 307 306 305 302 300 298 296 294 291 289 287
226 232 243 254 264 273 280 287 293 298 303 304 305 307 308 308 308 308 309 309 310 309 309 308 306 304 302 299 297 296 293 291 289
227 237 246 256 265 273 280 286 290 295 299 301 303 305 306 307 308 307 309 310 311 310 310 309 307 305 302 300 298 296 295 293 291
231 240 249 258 266 273 280 285 288 293 296 298 300 303 304 305 305 306 309 308 308 308 309 308 307 305 303 301 299 298 296 294 293
235 242 251 260 267 273 280 284 288 291 294 295 297 301 302 303 303 304 309 308 307 306 308 308 307 306 304 302 300 298 297 295 294
237 244 251 259 267 272 279 285 288 290 292 293 295 299 299 300 302 302 308 307 308 307 307 308 307 306 304 303 301 300 298 297 295
238 245 251 259 266 272 277 283 288 289 291 292 294 297 298 299 300 301 307 308 307 308 307 307 307 306 305 303 302 301 300 298 297
239 244 251 260 266 271 276 282 286 289 291 291 293 295 297 299 299 303 305 307 307 308 308 308 307 306 305 304 303 302 301 300 299
239 245 252 257 264 269 275 279 284 287 290 291 294 296 297 298 300 302 305 307 308 308 308 308 307 306 305 304 303 303 302 301 300
240 245 250 256 263 269 274 279 282 285 288 292 293 295 297 302 301 302 304 307 308 308 309 308 307 306 305 304 304 304 303 302 301
241 245 249 254 261 267 272 278 282 284 286 289 293 296 298 301 302 302 304 306 308 309 309 308 307 306 305 305 304 305 304 303 302
241 244 248 253 259 265 271 276 281 284 286 289 292 295 298 299 301 303 305 307 308 309 309 308 307 307 306 305 305 305 305 304 304